Multibeam Report for NBP1303


Ship Name: Nathaniel B. Palmer
Chief Scientist: Wilson, Nerida
University of California, San Diego
Source Organization: Marine Geoscience Data System (MGDS)
Start Date: 2013-04-09
End Date: 2013-05-09


View ISO Metadata

Visit the full NCEI Bathymetry Viewer


Multibeam Bathymetry

Cruise Details

Project:
Instrument: Kongsberg EM120

Data Quality

Number of Files: 540
Number of Records: 1302077
BATHYMETRY DATA Quantity Percentage
Number of Beams 248696516 100%
Number of Good Beams 201511505 81.03%
Number of Zero Beams 47185011 18.97%
Number of Flagged Beams 0 0%
AMPLITUDE DATA Quantity Percentage
Number of Beams 248696516 100%
Number of Good Beams 201511505 81.03%
Number of Zero Beams 47185011 18.97%
Number of Flagged Beams 0 0%
SIDESCAN DATA Quantity Percentage
Number of Pixels 1333325824 100%
Number of Good Pixels 727509108 54.56%
Number of Zero Pixels 0 0%
Number of Flagged Pixels 605816716 45.44%

Navigation Totals

Total Time: 517.4748 hours
Total Track Length: 6776.693 km
Average Speed: 13.096 km/hr (7.0713 knots)

Cruise Bounds

Northern Extent: -50.00618
Southern Extent: -54.56708
Western Extent: -61.990063
Eastern Extent: -36.775356

Limits

Minimum Sonar Depth 5.31 Maximum Sonar Depth 9.28
Minimum Altitude 0 Maximum Altitude 5648.6401
Minimum Depth 28.69 Maximum Depth 5827.96
Minimum Amplitude 0 Maximum Amplitude 22.5
Minimum Sidescan 0 Maximum Sidescan 63

File Information

Full Resolution Bathymetry as collected (raw): 537

Files File Size Description
0000_20130413_135430_raw.all.mb56.gz 9.49MB Simrad multibeam vendor format
0001_20130413_145430_raw.all.mb56.gz 8.99MB Simrad multibeam vendor format
0002_20130413_155430_raw.all.mb56.gz 9.19MB Simrad multibeam vendor format
0003_20130413_165430_raw.all.mb56.gz 8.71MB Simrad multibeam vendor format
0004_20130413_175430_raw.all.mb56.gz 8.61MB Simrad multibeam vendor format
0005_20130413_185430_raw.all.mb56.gz 9.01MB Simrad multibeam vendor format
0006_20130413_195430_raw.all.mb56.gz 9.02MB Simrad multibeam vendor format
0007_20130413_205430_raw.all.mb56.gz 9.09MB Simrad multibeam vendor format
0008_20130413_215429_raw.all.mb56.gz 9.00MB Simrad multibeam vendor format
0009_20130413_225429_raw.all.mb56.gz 8.49MB Simrad multibeam vendor format
0010_20130413_235429_raw.all.mb56.gz 8.70MB Simrad multibeam vendor format
0011_20130414_005429_raw.all.mb56.gz 8.87MB Simrad multibeam vendor format
0012_20130414_015429_raw.all.mb56.gz 8.37MB Simrad multibeam vendor format
0013_20130414_025429_raw.all.mb56.gz 9.09MB Simrad multibeam vendor format
0014_20130414_035429_raw.all.mb56.gz 8.91MB Simrad multibeam vendor format
0015_20130414_045429_raw.all.mb56.gz 9.05MB Simrad multibeam vendor format
0016_20130414_055429_raw.all.mb56.gz 9.16MB Simrad multibeam vendor format
0017_20130414_065429_raw.all.mb56.gz 9.35MB Simrad multibeam vendor format
0018_20130414_075429_raw.all.mb56.gz 1.83MB Simrad multibeam vendor format
0019_20130414_094608_raw.all.mb56.gz 9.39MB Simrad multibeam vendor format
0020_20130414_104608_raw.all.mb56.gz 9.41MB Simrad multibeam vendor format
0021_20130414_114608_raw.all.mb56.gz 9.49MB Simrad multibeam vendor format
0022_20130414_124608_raw.all.mb56.gz 9.38MB Simrad multibeam vendor format
0023_20130414_134608_raw.all.mb56.gz 9.35MB Simrad multibeam vendor format
0024_20130414_144608_raw.all.mb56.gz 9.17MB Simrad multibeam vendor format
0025_20130414_154608_raw.all.mb56.gz 1.37MB Simrad multibeam vendor format
0026_20130414_155510_raw.all.mb56.gz 8.84MB Simrad multibeam vendor format
0027_20130414_165510_raw.all.mb56.gz 9.01MB Simrad multibeam vendor format
0028_20130414_175510_raw.all.mb56.gz 8.98MB Simrad multibeam vendor format
0029_20130414_185510_raw.all.mb56.gz 8.94MB Simrad multibeam vendor format
0030_20130414_195510_raw.all.mb56.gz 8.86MB Simrad multibeam vendor format
0031_20130414_205510_raw.all.mb56.gz 9.69MB Simrad multibeam vendor format
0032_20130414_215510_raw.all.mb56.gz 9.49MB Simrad multibeam vendor format
0033_20130414_225510_raw.all.mb56.gz 9.29MB Simrad multibeam vendor format
0034_20130414_235510_raw.all.mb56.gz 9.43MB Simrad multibeam vendor format
0035_20130415_005510_raw.all.mb56.gz 9.36MB Simrad multibeam vendor format
0036_20130415_015510_raw.all.mb56.gz 9.50MB Simrad multibeam vendor format
0037_20130415_025510_raw.all.mb56.gz 9.70MB Simrad multibeam vendor format
0038_20130415_035510_raw.all.mb56.gz 9.64MB Simrad multibeam vendor format
0039_20130415_045509_raw.all.mb56.gz 9.58MB Simrad multibeam vendor format
0040_20130415_055509_raw.all.mb56.gz 9.58MB Simrad multibeam vendor format
0041_20130415_065509_raw.all.mb56.gz 9.30MB Simrad multibeam vendor format
0042_20130415_075509_raw.all.mb56.gz 9.09MB Simrad multibeam vendor format
0043_20130415_085509_raw.all.mb56.gz 9.20MB Simrad multibeam vendor format
0044_20130415_095509_raw.all.mb56.gz 9.41MB Simrad multibeam vendor format
0045_20130415_105509_raw.all.mb56.gz 9.69MB Simrad multibeam vendor format
0046_20130415_115509_raw.all.mb56.gz 9.85MB Simrad multibeam vendor format
0047_20130415_125509_raw.all.mb56.gz 9.81MB Simrad multibeam vendor format
0048_20130415_135509_raw.all.mb56.gz 9.92MB Simrad multibeam vendor format
0049_20130415_145509_raw.all.mb56.gz 9.80MB Simrad multibeam vendor format
0050_20130415_155509_raw.all.mb56.gz 9.55MB Simrad multibeam vendor format
0051_20130415_165509_raw.all.mb56.gz 9.72MB Simrad multibeam vendor format
0052_20130415_175509_raw.all.mb56.gz 9.32MB Simrad multibeam vendor format
0053_20130415_185509_raw.all.mb56.gz 9.35MB Simrad multibeam vendor format
0054_20130415_195509_raw.all.mb56.gz 8.91MB Simrad multibeam vendor format
0055_20130415_205509_raw.all.mb56.gz 8.51MB Simrad multibeam vendor format
0056_20130415_215509_raw.all.mb56.gz 8.58MB Simrad multibeam vendor format
0057_20130415_225509_raw.all.mb56.gz 8.64MB Simrad multibeam vendor format
0058_20130415_235509_raw.all.mb56.gz 8.66MB Simrad multibeam vendor format
0059_20130416_005509_raw.all.mb56.gz 8.65MB Simrad multibeam vendor format
0060_20130416_015509_raw.all.mb56.gz 8.57MB Simrad multibeam vendor format
0061_20130416_025509_raw.all.mb56.gz 8.95MB Simrad multibeam vendor format
0062_20130416_035509_raw.all.mb56.gz 8.78MB Simrad multibeam vendor format
0063_20130416_045509_raw.all.mb56.gz 9.07MB Simrad multibeam vendor format
0064_20130416_055509_raw.all.mb56.gz 9.46MB Simrad multibeam vendor format
0065_20130416_065509_raw.all.mb56.gz 9.87MB Simrad multibeam vendor format
0066_20130416_075509_raw.all.mb56.gz 10.85MB Simrad multibeam vendor format
0067_20130416_085509_raw.all.mb56.gz 11.42MB Simrad multibeam vendor format
0068_20130416_095509_raw.all.mb56.gz 24.74MB Simrad multibeam vendor format
0069_20130416_105509_raw.all.mb56.gz 16.29MB Simrad multibeam vendor format
0070_20130416_112835_raw.all.mb56.gz 26.01MB Simrad multibeam vendor format
0071_20130416_122835_raw.all.mb56.gz 28.06MB Simrad multibeam vendor format
0072_20130416_132835_raw.all.mb56.gz 29.52MB Simrad multibeam vendor format
0073_20130416_142835_raw.all.mb56.gz 28.33MB Simrad multibeam vendor format
0074_20130416_152835_raw.all.mb56.gz 29.10MB Simrad multibeam vendor format
0075_20130416_162835_raw.all.mb56.gz 26.06MB Simrad multibeam vendor format
0076_20130416_172835_raw.all.mb56.gz 27.72MB Simrad multibeam vendor format
0077_20130416_182835_raw.all.mb56.gz 28.26MB Simrad multibeam vendor format
0078_20130416_192835_raw.all.mb56.gz 23.55MB Simrad multibeam vendor format
0079_20130416_202835_raw.all.mb56.gz 19.79MB Simrad multibeam vendor format
0080_20130416_212835_raw.all.mb56.gz 18.00MB Simrad multibeam vendor format
0081_20130416_222835_raw.all.mb56.gz 17.22MB Simrad multibeam vendor format
0082_20130416_232835_raw.all.mb56.gz 20.37MB Simrad multibeam vendor format
0083_20130417_002835_raw.all.mb56.gz 18.37MB Simrad multibeam vendor format
0084_20130417_014413_raw.all.mb56.gz 11.53MB Simrad multibeam vendor format
0085_20130417_023031_raw.all.mb56.gz 8.40MB Simrad multibeam vendor format
0086_20130417_025937_raw.all.mb56.gz 10.08MB Simrad multibeam vendor format
0087_20130417_032935_raw.all.mb56.gz 26.47MB Simrad multibeam vendor format
0088_20130417_042935_raw.all.mb56.gz 27.16MB Simrad multibeam vendor format
0089_20130417_052935_raw.all.mb56.gz 26.89MB Simrad multibeam vendor format
0090_20130417_062935_raw.all.mb56.gz 25.99MB Simrad multibeam vendor format
0091_20130417_072935_raw.all.mb56.gz 28.20MB Simrad multibeam vendor format
0092_20130417_082935_raw.all.mb56.gz 26.24MB Simrad multibeam vendor format
0093_20130417_092935_raw.all.mb56.gz 31.73MB Simrad multibeam vendor format
0094_20130417_102935_raw.all.mb56.gz 28.10MB Simrad multibeam vendor format
0095_20130417_112935_raw.all.mb56.gz 26.74MB Simrad multibeam vendor format
0096_20130417_122935_raw.all.mb56.gz 33.77MB Simrad multibeam vendor format
0097_20130417_132935_raw.all.mb56.gz 33.93MB Simrad multibeam vendor format
0098_20130417_142935_raw.all.mb56.gz 35.39MB Simrad multibeam vendor format
0099_20130417_152935_raw.all.mb56.gz 34.48MB Simrad multibeam vendor format
0100_20130417_162935_raw.all.mb56.gz 26.88MB Simrad multibeam vendor format
0101_20130417_172935_raw.all.mb56.gz 30.34MB Simrad multibeam vendor format
0102_20130417_182935_raw.all.mb56.gz 33.33MB Simrad multibeam vendor format
0103_20130417_192935_raw.all.mb56.gz 23.95MB Simrad multibeam vendor format
0104_20130417_202935_raw.all.mb56.gz 24.72MB Simrad multibeam vendor format
0105_20130417_212935_raw.all.mb56.gz 23.43MB Simrad multibeam vendor format
0106_20130417_222935_raw.all.mb56.gz 27.55MB Simrad multibeam vendor format
0107_20130417_232935_raw.all.mb56.gz 27.08MB Simrad multibeam vendor format
0108_20130418_002935_raw.all.mb56.gz 25.98MB Simrad multibeam vendor format
0109_20130418_012935_raw.all.mb56.gz 26.66MB Simrad multibeam vendor format
0110_20130418_022935_raw.all.mb56.gz 30.15MB Simrad multibeam vendor format
0111_20130418_032935_raw.all.mb56.gz 28.02MB Simrad multibeam vendor format
0112_20130418_042935_raw.all.mb56.gz 27.83MB Simrad multibeam vendor format
0113_20130418_052935_raw.all.mb56.gz 29.81MB Simrad multibeam vendor format
0114_20130418_062935_raw.all.mb56.gz 26.57MB Simrad multibeam vendor format
0115_20130418_072935_raw.all.mb56.gz 28.95MB Simrad multibeam vendor format
0116_20130418_082935_raw.all.mb56.gz 26.86MB Simrad multibeam vendor format
0117_20130418_092935_raw.all.mb56.gz 30.86MB Simrad multibeam vendor format
0118_20130418_102935_raw.all.mb56.gz 30.14MB Simrad multibeam vendor format
0119_20130418_112935_raw.all.mb56.gz 29.39MB Simrad multibeam vendor format
0120_20130418_122935_raw.all.mb56.gz 31.87MB Simrad multibeam vendor format
0121_20130418_132935_raw.all.mb56.gz 31.42MB Simrad multibeam vendor format
0122_20130418_142935_raw.all.mb56.gz 24.35MB Simrad multibeam vendor format
0123_20130418_152935_raw.all.mb56.gz 22.06MB Simrad multibeam vendor format
0124_20130418_162935_raw.all.mb56.gz 24.82MB Simrad multibeam vendor format
0125_20130418_172935_raw.all.mb56.gz 25.47MB Simrad multibeam vendor format
0126_20130418_182935_raw.all.mb56.gz 26.52MB Simrad multibeam vendor format
0127_20130418_192935_raw.all.mb56.gz 26.62MB Simrad multibeam vendor format
0128_20130418_202935_raw.all.mb56.gz 25.96MB Simrad multibeam vendor format
0129_20130418_212935_raw.all.mb56.gz 19.98MB Simrad multibeam vendor format
0130_20130418_222935_raw.all.mb56.gz 17.91MB Simrad multibeam vendor format
0131_20130418_232935_raw.all.mb56.gz 10.10MB Simrad multibeam vendor format
0132_20130419_002935_raw.all.mb56.gz 10.80MB Simrad multibeam vendor format
0133_20130419_012935_raw.all.mb56.gz 11.47MB Simrad multibeam vendor format
0134_20130419_022935_raw.all.mb56.gz 11.35MB Simrad multibeam vendor format
0135_20130419_032935_raw.all.mb56.gz 4.20MB Simrad multibeam vendor format
0136_20130419_034259_raw.all.mb56.gz 26.55MB Simrad multibeam vendor format
0137_20130419_044259_raw.all.mb56.gz 31.14MB Simrad multibeam vendor format
0138_20130419_054259_raw.all.mb56.gz 31.31MB Simrad multibeam vendor format
0139_20130419_064259_raw.all.mb56.gz 26.03MB Simrad multibeam vendor format
0140_20130419_074259_raw.all.mb56.gz 27.76MB Simrad multibeam vendor format
0141_20130419_084259_raw.all.mb56.gz 25.57MB Simrad multibeam vendor format
0142_20130419_094259_raw.all.mb56.gz 30.37MB Simrad multibeam vendor format
0143_20130419_104259_raw.all.mb56.gz 33.99MB Simrad multibeam vendor format
0144_20130419_114259_raw.all.mb56.gz 35.98MB Simrad multibeam vendor format
0145_20130419_124259_raw.all.mb56.gz 35.02MB Simrad multibeam vendor format
0146_20130419_134259_raw.all.mb56.gz 33.73MB Simrad multibeam vendor format
0147_20130419_144259_raw.all.mb56.gz 31.98MB Simrad multibeam vendor format
0148_20130419_154259_raw.all.mb56.gz 33.51MB Simrad multibeam vendor format
0149_20130419_164259_raw.all.mb56.gz 33.64MB Simrad multibeam vendor format
0150_20130419_174259_raw.all.mb56.gz 34.93MB Simrad multibeam vendor format
0151_20130419_184259_raw.all.mb56.gz 36.19MB Simrad multibeam vendor format
0152_20130419_194259_raw.all.mb56.gz 33.41MB Simrad multibeam vendor format
0153_20130419_204259_raw.all.mb56.gz 33.57MB Simrad multibeam vendor format
0154_20130419_214259_raw.all.mb56.gz 34.65MB Simrad multibeam vendor format
0155_20130419_224259_raw.all.mb56.gz 35.79MB Simrad multibeam vendor format
0156_20130419_234259_raw.all.mb56.gz 22.54MB Simrad multibeam vendor format
0157_20130420_002737_raw.all.mb56.gz 20.73MB Simrad multibeam vendor format
0158_20130420_012737_raw.all.mb56.gz 20.05MB Simrad multibeam vendor format
0159_20130420_022737_raw.all.mb56.gz 18.83MB Simrad multibeam vendor format
0160_20130420_032737_raw.all.mb56.gz 19.73MB Simrad multibeam vendor format
0161_20130420_042737_raw.all.mb56.gz 17.17MB Simrad multibeam vendor format
0162_20130420_052737_raw.all.mb56.gz 15.61MB Simrad multibeam vendor format
0163_20130420_062737_raw.all.mb56.gz 10.38MB Simrad multibeam vendor format
0164_20130420_072737_raw.all.mb56.gz 9.73MB Simrad multibeam vendor format
0165_20130420_082737_raw.all.mb56.gz 5.94MB Simrad multibeam vendor format
0166_20130420_090708_raw.all.mb56.gz 205.1KB Simrad multibeam vendor format
0167_20130420_090818_raw.all.mb56.gz 9.09MB Simrad multibeam vendor format
0168_20130420_100818_raw.all.mb56.gz 8.60MB Simrad multibeam vendor format
0169_20130420_110818_raw.all.mb56.gz 325.3KB Simrad multibeam vendor format
0170_20130421_033126_raw.all.mb56.gz 310.8KB Simrad multibeam vendor format
0171_20130421_033326_raw.all.mb56.gz 100.2KB Simrad multibeam vendor format
0172_20130421_033405_raw.all.mb56.gz 8.28MB Simrad multibeam vendor format
0173_20130421_043405_raw.all.mb56.gz 8.47MB Simrad multibeam vendor format
0174_20130421_053405_raw.all.mb56.gz 8.52MB Simrad multibeam vendor format
0175_20130421_063405_raw.all.mb56.gz 8.52MB Simrad multibeam vendor format
0176_20130421_073405_raw.all.mb56.gz 8.69MB Simrad multibeam vendor format
0177_20130421_083405_raw.all.mb56.gz 10.44MB Simrad multibeam vendor format
0178_20130421_093405_raw.all.mb56.gz 10.13MB Simrad multibeam vendor format
0179_20130421_103405_raw.all.mb56.gz 8.97MB Simrad multibeam vendor format
0180_20130421_113405_raw.all.mb56.gz 9.18MB Simrad multibeam vendor format
0181_20130421_123405_raw.all.mb56.gz 9.26MB Simrad multibeam vendor format
0182_20130421_133405_raw.all.mb56.gz 9.84MB Simrad multibeam vendor format
0183_20130421_143405_raw.all.mb56.gz 10.77MB Simrad multibeam vendor format
0184_20130421_153405_raw.all.mb56.gz 10.86MB Simrad multibeam vendor format
0185_20130421_163405_raw.all.mb56.gz 10.55MB Simrad multibeam vendor format
0186_20130421_173405_raw.all.mb56.gz 1.48MB Simrad multibeam vendor format
0187_20130421_174236_raw.all.mb56.gz 14.20MB Simrad multibeam vendor format
0188_20130421_184236_raw.all.mb56.gz 19.97MB Simrad multibeam vendor format
0189_20130421_194236_raw.all.mb56.gz 18.51MB Simrad multibeam vendor format
0190_20130421_204236_raw.all.mb56.gz 20.60MB Simrad multibeam vendor format
0191_20130421_214236_raw.all.mb56.gz 22.72MB Simrad multibeam vendor format
0192_20130421_224236_raw.all.mb56.gz 19.25MB Simrad multibeam vendor format
0193_20130421_234236_raw.all.mb56.gz 19.29MB Simrad multibeam vendor format
0194_20130422_004236_raw.all.mb56.gz 16.52MB Simrad multibeam vendor format
0195_20130422_014236_raw.all.mb56.gz 15.54MB Simrad multibeam vendor format
0196_20130422_024236_raw.all.mb56.gz 16.78MB Simrad multibeam vendor format
0197_20130422_034236_raw.all.mb56.gz 14.82MB Simrad multibeam vendor format
0198_20130422_044236_raw.all.mb56.gz 15.62MB Simrad multibeam vendor format
0199_20130422_054236_raw.all.mb56.gz 17.04MB Simrad multibeam vendor format
0200_20130422_064236_raw.all.mb56.gz 16.75MB Simrad multibeam vendor format
0201_20130422_074236_raw.all.mb56.gz 18.27MB Simrad multibeam vendor format
0202_20130422_084236_raw.all.mb56.gz 20.30MB Simrad multibeam vendor format
0203_20130422_094236_raw.all.mb56.gz 19.73MB Simrad multibeam vendor format
0204_20130422_104236_raw.all.mb56.gz 23.47MB Simrad multibeam vendor format
0205_20130422_114236_raw.all.mb56.gz 23.55MB Simrad multibeam vendor format
0206_20130422_124236_raw.all.mb56.gz 15.14MB Simrad multibeam vendor format
0207_20130423_163052_raw.all.mb56.gz 454.0KB Simrad multibeam vendor format
0208_20130423_195005_raw.all.mb56.gz 11.01MB Simrad multibeam vendor format
0209_20130423_201946_raw.all.mb56.gz 22.93MB Simrad multibeam vendor format
0210_20130423_211946_raw.all.mb56.gz 36.43MB Simrad multibeam vendor format
0211_20130423_221946_raw.all.mb56.gz 39.79MB Simrad multibeam vendor format
0212_20130423_231946_raw.all.mb56.gz 38.44MB Simrad multibeam vendor format
0213_20130424_001946_raw.all.mb56.gz 36.48MB Simrad multibeam vendor format
0214_20130424_011946_raw.all.mb56.gz 33.60MB Simrad multibeam vendor format
0215_20130424_021946_raw.all.mb56.gz 31.20MB Simrad multibeam vendor format
0216_20130424_031946_raw.all.mb56.gz 28.52MB Simrad multibeam vendor format
0217_20130424_041946_raw.all.mb56.gz 24.91MB Simrad multibeam vendor format
0218_20130424_051946_raw.all.mb56.gz 26.53MB Simrad multibeam vendor format
0219_20130424_061946_raw.all.mb56.gz 34.00MB Simrad multibeam vendor format
0220_20130424_071946_raw.all.mb56.gz 37.30MB Simrad multibeam vendor format
0221_20130424_081946_raw.all.mb56.gz 29.51MB Simrad multibeam vendor format
0222_20130424_091946_raw.all.mb56.gz 31.76MB Simrad multibeam vendor format
0223_20130424_101946_raw.all.mb56.gz 27.45MB Simrad multibeam vendor format
0224_20130424_111946_raw.all.mb56.gz 38.09MB Simrad multibeam vendor format
0225_20130424_121946_raw.all.mb56.gz 36.12MB Simrad multibeam vendor format
0226_20130424_131946_raw.all.mb56.gz 38.01MB Simrad multibeam vendor format
0227_20130424_141946_raw.all.mb56.gz 37.97MB Simrad multibeam vendor format
0228_20130424_151946_raw.all.mb56.gz 36.29MB Simrad multibeam vendor format
0229_20130424_161946_raw.all.mb56.gz 31.95MB Simrad multibeam vendor format
0230_20130424_171946_raw.all.mb56.gz 40.43MB Simrad multibeam vendor format
0231_20130424_181946_raw.all.mb56.gz 40.56MB Simrad multibeam vendor format
0232_20130424_191946_raw.all.mb56.gz 42.51MB Simrad multibeam vendor format
0233_20130424_201946_raw.all.mb56.gz 38.62MB Simrad multibeam vendor format
0234_20130424_211946_raw.all.mb56.gz 41.43MB Simrad multibeam vendor format
0235_20130424_221946_raw.all.mb56.gz 42.07MB Simrad multibeam vendor format
0236_20130424_231946_raw.all.mb56.gz 38.86MB Simrad multibeam vendor format
0237_20130425_001946_raw.all.mb56.gz 31.09MB Simrad multibeam vendor format
0238_20130425_011946_raw.all.mb56.gz 27.79MB Simrad multibeam vendor format
0239_20130425_021946_raw.all.mb56.gz 20.15MB Simrad multibeam vendor format
0240_20130425_031946_raw.all.mb56.gz 15.87MB Simrad multibeam vendor format
0241_20130425_041946_raw.all.mb56.gz 13.41MB Simrad multibeam vendor format
0242_20130425_051946_raw.all.mb56.gz 16.19MB Simrad multibeam vendor format
0243_20130425_061946_raw.all.mb56.gz 18.92MB Simrad multibeam vendor format
0244_20130425_071946_raw.all.mb56.gz 18.13MB Simrad multibeam vendor format
0245_20130425_081946_raw.all.mb56.gz 20.24MB Simrad multibeam vendor format
0246_20130425_091946_raw.all.mb56.gz 22.03MB Simrad multibeam vendor format
0247_20130425_101946_raw.all.mb56.gz 23.59MB Simrad multibeam vendor format
0248_20130425_111946_raw.all.mb56.gz 22.00MB Simrad multibeam vendor format
0249_20130425_121946_raw.all.mb56.gz 22.36MB Simrad multibeam vendor format
0250_20130425_131946_raw.all.mb56.gz 22.64MB Simrad multibeam vendor format
0251_20130425_141946_raw.all.mb56.gz 20.00MB Simrad multibeam vendor format
0252_20130425_183210_raw.all.mb56.gz 18.34MB Simrad multibeam vendor format
0253_20130425_193210_raw.all.mb56.gz 14.29MB Simrad multibeam vendor format
0254_20130425_203210_raw.all.mb56.gz 13.89MB Simrad multibeam vendor format
0255_20130425_213210_raw.all.mb56.gz 15.27MB Simrad multibeam vendor format
0256_20130425_223210_raw.all.mb56.gz 16.45MB Simrad multibeam vendor format
0257_20130425_233210_raw.all.mb56.gz 17.54MB Simrad multibeam vendor format
0258_20130426_003210_raw.all.mb56.gz 16.57MB Simrad multibeam vendor format
0259_20130426_013210_raw.all.mb56.gz 12.51MB Simrad multibeam vendor format
0260_20130426_023210_raw.all.mb56.gz 10.60MB Simrad multibeam vendor format
0261_20130426_033210_raw.all.mb56.gz 10.54MB Simrad multibeam vendor format
0262_20130426_043210_raw.all.mb56.gz 10.73MB Simrad multibeam vendor format
0263_20130426_053210_raw.all.mb56.gz 10.46MB Simrad multibeam vendor format
0264_20130426_063210_raw.all.mb56.gz 10.56MB Simrad multibeam vendor format
0265_20130426_073210_raw.all.mb56.gz 10.93MB Simrad multibeam vendor format
0266_20130426_083210_raw.all.mb56.gz 10.71MB Simrad multibeam vendor format
0267_20130426_093210_raw.all.mb56.gz 11.00MB Simrad multibeam vendor format
0268_20130426_103210_raw.all.mb56.gz 11.69MB Simrad multibeam vendor format
0269_20130426_113210_raw.all.mb56.gz 11.57MB Simrad multibeam vendor format
0270_20130426_123210_raw.all.mb56.gz 11.53MB Simrad multibeam vendor format
0271_20130426_133210_raw.all.mb56.gz 13.08MB Simrad multibeam vendor format
0272_20130426_143210_raw.all.mb56.gz 13.16MB Simrad multibeam vendor format
0273_20130426_153210_raw.all.mb56.gz 14.41MB Simrad multibeam vendor format
0274_20130426_163210_raw.all.mb56.gz 18.52MB Simrad multibeam vendor format
0275_20130426_173210_raw.all.mb56.gz 19.03MB Simrad multibeam vendor format
0276_20130426_183210_raw.all.mb56.gz 18.00MB Simrad multibeam vendor format
0277_20130426_193210_raw.all.mb56.gz 18.23MB Simrad multibeam vendor format
0278_20130426_203210_raw.all.mb56.gz 22.08MB Simrad multibeam vendor format
0279_20130426_213210_raw.all.mb56.gz 32.07MB Simrad multibeam vendor format
0280_20130426_223210_raw.all.mb56.gz 37.53MB Simrad multibeam vendor format
0281_20130426_233210_raw.all.mb56.gz 42.47MB Simrad multibeam vendor format
0282_20130427_003210_raw.all.mb56.gz 7.64MB Simrad multibeam vendor format
0283_20130427_013840_raw.all.mb56.gz 42.05MB Simrad multibeam vendor format
0284_20130427_023840_raw.all.mb56.gz 38.71MB Simrad multibeam vendor format
0285_20130427_033840_raw.all.mb56.gz 34.35MB Simrad multibeam vendor format
0286_20130427_043840_raw.all.mb56.gz 31.93MB Simrad multibeam vendor format
0287_20130427_053840_raw.all.mb56.gz 29.49MB Simrad multibeam vendor format
0288_20130427_063840_raw.all.mb56.gz 20.09MB Simrad multibeam vendor format
0289_20130427_073840_raw.all.mb56.gz 17.99MB Simrad multibeam vendor format
0290_20130427_083840_raw.all.mb56.gz 17.10MB Simrad multibeam vendor format
0291_20130427_093840_raw.all.mb56.gz 11.78MB Simrad multibeam vendor format
0292_20130427_103840_raw.all.mb56.gz 9.96MB Simrad multibeam vendor format
0293_20130427_113840_raw.all.mb56.gz 13.42MB Simrad multibeam vendor format
0294_20130427_123840_raw.all.mb56.gz 13.34MB Simrad multibeam vendor format
0295_20130427_133843_raw.all.mb56.gz 14.25MB Simrad multibeam vendor format
0296_20130427_143843_raw.all.mb56.gz 14.93MB Simrad multibeam vendor format
0297_20130427_153843_raw.all.mb56.gz 14.98MB Simrad multibeam vendor format
0298_20130427_163843_raw.all.mb56.gz 16.51MB Simrad multibeam vendor format
0299_20130427_173843_raw.all.mb56.gz 15.78MB Simrad multibeam vendor format
0300_20130427_183843_raw.all.mb56.gz 11.59MB Simrad multibeam vendor format
0301_20130427_193843_raw.all.mb56.gz 9.39MB Simrad multibeam vendor format
0302_20130427_203843_raw.all.mb56.gz 11.01MB Simrad multibeam vendor format
0303_20130427_213844_raw.all.mb56.gz 12.62MB Simrad multibeam vendor format
0304_20130427_223844_raw.all.mb56.gz 15.94MB Simrad multibeam vendor format
0305_20130427_233844_raw.all.mb56.gz 19.07MB Simrad multibeam vendor format
0306_20130428_003844_raw.all.mb56.gz 19.22MB Simrad multibeam vendor format
0307_20130428_013844_raw.all.mb56.gz 20.22MB Simrad multibeam vendor format
0308_20130428_023844_raw.all.mb56.gz 21.24MB Simrad multibeam vendor format
0309_20130428_033844_raw.all.mb56.gz 21.59MB Simrad multibeam vendor format
0310_20130428_043844_raw.all.mb56.gz 21.76MB Simrad multibeam vendor format
0311_20130428_053844_raw.all.mb56.gz 28.58MB Simrad multibeam vendor format
0312_20130428_063844_raw.all.mb56.gz 35.07MB Simrad multibeam vendor format
0313_20130428_073844_raw.all.mb56.gz 32.51MB Simrad multibeam vendor format
0314_20130428_083844_raw.all.mb56.gz 32.29MB Simrad multibeam vendor format
0315_20130428_093844_raw.all.mb56.gz 36.33MB Simrad multibeam vendor format
0316_20130428_103844_raw.all.mb56.gz 37.10MB Simrad multibeam vendor format
0317_20130428_113844_raw.all.mb56.gz 37.28MB Simrad multibeam vendor format
0318_20130428_123844_raw.all.mb56.gz 26.43MB Simrad multibeam vendor format
0319_20130428_132239_raw.all.mb56.gz 3.94MB Simrad multibeam vendor format
0320_20130428_151443_raw.all.mb56.gz 36.74MB Simrad multibeam vendor format
0321_20130428_161443_raw.all.mb56.gz 33.65MB Simrad multibeam vendor format
0322_20130428_171443_raw.all.mb56.gz 33.01MB Simrad multibeam vendor format
0323_20130428_181443_raw.all.mb56.gz 35.48MB Simrad multibeam vendor format
0324_20130428_191443_raw.all.mb56.gz 35.52MB Simrad multibeam vendor format
0325_20130428_201443_raw.all.mb56.gz 36.85MB Simrad multibeam vendor format
0326_20130428_211443_raw.all.mb56.gz 37.17MB Simrad multibeam vendor format
0327_20130428_221443_raw.all.mb56.gz 35.74MB Simrad multibeam vendor format
0328_20130428_231443_raw.all.mb56.gz 32.80MB Simrad multibeam vendor format
0329_20130429_001443_raw.all.mb56.gz 27.57MB Simrad multibeam vendor format
0330_20130429_041857_raw.all.mb56.gz 25.88MB Simrad multibeam vendor format
0331_20130429_051857_raw.all.mb56.gz 23.27MB Simrad multibeam vendor format
0332_20130429_061857_raw.all.mb56.gz 21.52MB Simrad multibeam vendor format
0333_20130429_071857_raw.all.mb56.gz 21.63MB Simrad multibeam vendor format
0334_20130429_081857_raw.all.mb56.gz 20.33MB Simrad multibeam vendor format
0335_20130429_091857_raw.all.mb56.gz 19.60MB Simrad multibeam vendor format
0336_20130429_101857_raw.all.mb56.gz 18.21MB Simrad multibeam vendor format
0337_20130429_111857_raw.all.mb56.gz 16.91MB Simrad multibeam vendor format
0338_20130429_121857_raw.all.mb56.gz 17.14MB Simrad multibeam vendor format
0339_20130429_131857_raw.all.mb56.gz 16.59MB Simrad multibeam vendor format
0340_20130429_141857_raw.all.mb56.gz 9.79MB Simrad multibeam vendor format
0341_20130429_145640_raw.all.mb56.gz 13.30MB Simrad multibeam vendor format
0342_20130429_155640_raw.all.mb56.gz 14.14MB Simrad multibeam vendor format
0343_20130429_165640_raw.all.mb56.gz 12.99MB Simrad multibeam vendor format
0344_20130429_175640_raw.all.mb56.gz 13.79MB Simrad multibeam vendor format
0345_20130429_185640_raw.all.mb56.gz 14.01MB Simrad multibeam vendor format
0346_20130429_195640_raw.all.mb56.gz 15.57MB Simrad multibeam vendor format
0347_20130429_205640_raw.all.mb56.gz 12.68MB Simrad multibeam vendor format
0348_20130429_215640_raw.all.mb56.gz 12.03MB Simrad multibeam vendor format
0349_20130429_225640_raw.all.mb56.gz 12.17MB Simrad multibeam vendor format
0350_20130429_235640_raw.all.mb56.gz 12.74MB Simrad multibeam vendor format
0351_20130430_005640_raw.all.mb56.gz 12.50MB Simrad multibeam vendor format
0352_20130430_015640_raw.all.mb56.gz 13.22MB Simrad multibeam vendor format
0353_20130430_025640_raw.all.mb56.gz 13.37MB Simrad multibeam vendor format
0354_20130430_035640_raw.all.mb56.gz 13.03MB Simrad multibeam vendor format
0355_20130430_045640_raw.all.mb56.gz 13.64MB Simrad multibeam vendor format
0356_20130430_055640_raw.all.mb56.gz 14.99MB Simrad multibeam vendor format
0357_20130430_065640_raw.all.mb56.gz 12.74MB Simrad multibeam vendor format
0358_20130430_075640_raw.all.mb56.gz 13.43MB Simrad multibeam vendor format
0359_20130430_085640_raw.all.mb56.gz 13.33MB Simrad multibeam vendor format
0360_20130430_095640_raw.all.mb56.gz 14.05MB Simrad multibeam vendor format
0361_20130430_105640_raw.all.mb56.gz 14.21MB Simrad multibeam vendor format
0362_20130430_115640_raw.all.mb56.gz 14.06MB Simrad multibeam vendor format
0363_20130430_125640_raw.all.mb56.gz 14.19MB Simrad multibeam vendor format
0364_20130430_135640_raw.all.mb56.gz 13.36MB Simrad multibeam vendor format
0365_20130430_145640_raw.all.mb56.gz 13.08MB Simrad multibeam vendor format
0366_20130430_155640_raw.all.mb56.gz 14.08MB Simrad multibeam vendor format
0367_20130430_165640_raw.all.mb56.gz 14.37MB Simrad multibeam vendor format
0368_20130430_175640_raw.all.mb56.gz 14.18MB Simrad multibeam vendor format
0369_20130430_185640_raw.all.mb56.gz 14.39MB Simrad multibeam vendor format
0370_20130430_195640_raw.all.mb56.gz 14.23MB Simrad multibeam vendor format
0371_20130430_205640_raw.all.mb56.gz 16.14MB Simrad multibeam vendor format
0372_20130430_215640_raw.all.mb56.gz 16.68MB Simrad multibeam vendor format
0373_20130430_225640_raw.all.mb56.gz 17.40MB Simrad multibeam vendor format
0374_20130430_235640_raw.all.mb56.gz 18.26MB Simrad multibeam vendor format
0375_20130501_005640_raw.all.mb56.gz 19.11MB Simrad multibeam vendor format
0376_20130501_015640_raw.all.mb56.gz 18.35MB Simrad multibeam vendor format
0377_20130501_025640_raw.all.mb56.gz 18.04MB Simrad multibeam vendor format
0378_20130501_035640_raw.all.mb56.gz 18.03MB Simrad multibeam vendor format
0379_20130501_045640_raw.all.mb56.gz 19.14MB Simrad multibeam vendor format
0380_20130501_055640_raw.all.mb56.gz 18.15MB Simrad multibeam vendor format
0381_20130501_065640_raw.all.mb56.gz 20.59MB Simrad multibeam vendor format
0382_20130501_075640_raw.all.mb56.gz 21.50MB Simrad multibeam vendor format
0383_20130501_085640_raw.all.mb56.gz 19.93MB Simrad multibeam vendor format
0384_20130501_095640_raw.all.mb56.gz 25.35MB Simrad multibeam vendor format
0385_20130501_105640_raw.all.mb56.gz 27.63MB Simrad multibeam vendor format
0386_20130501_115640_raw.all.mb56.gz 23.95MB Simrad multibeam vendor format
0387_20130501_125122_raw.all.mb56.gz 24.94MB Simrad multibeam vendor format
0388_20130501_135122_raw.all.mb56.gz 18.32MB Simrad multibeam vendor format
0389_20130501_143507_raw.all.mb56.gz 31.21MB Simrad multibeam vendor format
0390_20130501_153507_raw.all.mb56.gz 32.09MB Simrad multibeam vendor format
0391_20130501_163507_raw.all.mb56.gz 28.33MB Simrad multibeam vendor format
0392_20130501_173508_raw.all.mb56.gz 29.60MB Simrad multibeam vendor format
0393_20130501_183507_raw.all.mb56.gz 29.22MB Simrad multibeam vendor format
0394_20130501_193507_raw.all.mb56.gz 29.96MB Simrad multibeam vendor format
0395_20130501_203507_raw.all.mb56.gz 30.08MB Simrad multibeam vendor format
0396_20130501_213507_raw.all.mb56.gz 30.47MB Simrad multibeam vendor format
0397_20130501_223507_raw.all.mb56.gz 30.43MB Simrad multibeam vendor format
0398_20130501_233507_raw.all.mb56.gz 30.94MB Simrad multibeam vendor format
0399_20130502_003507_raw.all.mb56.gz 30.45MB Simrad multibeam vendor format
0400_20130502_013507_raw.all.mb56.gz 30.57MB Simrad multibeam vendor format
0401_20130502_023507_raw.all.mb56.gz 29.15MB Simrad multibeam vendor format
0402_20130502_033507_raw.all.mb56.gz 29.74MB Simrad multibeam vendor format
0403_20130502_043507_raw.all.mb56.gz 28.80MB Simrad multibeam vendor format
0404_20130502_053507_raw.all.mb56.gz 30.33MB Simrad multibeam vendor format
0405_20130502_063507_raw.all.mb56.gz 29.65MB Simrad multibeam vendor format
0406_20130502_073507_raw.all.mb56.gz 27.95MB Simrad multibeam vendor format
0407_20130502_083507_raw.all.mb56.gz 26.62MB Simrad multibeam vendor format
0408_20130502_093507_raw.all.mb56.gz 28.06MB Simrad multibeam vendor format
0409_20130502_103507_raw.all.mb56.gz 29.27MB Simrad multibeam vendor format
0410_20130502_113507_raw.all.mb56.gz 32.57MB Simrad multibeam vendor format
0411_20130502_123507_raw.all.mb56.gz 32.27MB Simrad multibeam vendor format
0412_20130502_133507_raw.all.mb56.gz 31.32MB Simrad multibeam vendor format
0413_20130502_143507_raw.all.mb56.gz 29.56MB Simrad multibeam vendor format
0414_20130502_153507_raw.all.mb56.gz 29.61MB Simrad multibeam vendor format
0415_20130502_163507_raw.all.mb56.gz 30.84MB Simrad multibeam vendor format
0416_20130502_173507_raw.all.mb56.gz 30.01MB Simrad multibeam vendor format
0417_20130502_183507_raw.all.mb56.gz 26.94MB Simrad multibeam vendor format
0418_20130502_193507_raw.all.mb56.gz 23.37MB Simrad multibeam vendor format
0419_20130502_203507_raw.all.mb56.gz 24.86MB Simrad multibeam vendor format
0420_20130502_213507_raw.all.mb56.gz 25.33MB Simrad multibeam vendor format
0421_20130502_223507_raw.all.mb56.gz 25.89MB Simrad multibeam vendor format
0422_20130502_233507_raw.all.mb56.gz 24.18MB Simrad multibeam vendor format
0423_20130503_003507_raw.all.mb56.gz 31.03MB Simrad multibeam vendor format
0424_20130503_013507_raw.all.mb56.gz 26.04MB Simrad multibeam vendor format
0425_20130503_023507_raw.all.mb56.gz 26.11MB Simrad multibeam vendor format
0426_20130503_033507_raw.all.mb56.gz 25.04MB Simrad multibeam vendor format
0427_20130503_043507_raw.all.mb56.gz 24.30MB Simrad multibeam vendor format
0428_20130503_053507_raw.all.mb56.gz 16.84MB Simrad multibeam vendor format
0428_20130503_062059_raw.all.mb56.gz 14.84MB Simrad multibeam vendor format
0429_20130503_065605_raw.all.mb56.gz 355.0KB Simrad multibeam vendor format
0430_20130503_070420_raw.all.mb56.gz 25.95MB Simrad multibeam vendor format
0431_20130503_080420_raw.all.mb56.gz 29.80MB Simrad multibeam vendor format
0432_20130503_090420_raw.all.mb56.gz 27.42MB Simrad multibeam vendor format
0433_20130503_100420_raw.all.mb56.gz 30.26MB Simrad multibeam vendor format
0434_20130503_110420_raw.all.mb56.gz 33.13MB Simrad multibeam vendor format
0435_20130503_120420_raw.all.mb56.gz 32.98MB Simrad multibeam vendor format
0436_20130503_130420_raw.all.mb56.gz 33.75MB Simrad multibeam vendor format
0437_20130503_140420_raw.all.mb56.gz 33.16MB Simrad multibeam vendor format
0438_20130503_150420_raw.all.mb56.gz 33.57MB Simrad multibeam vendor format
0439_20130503_160420_raw.all.mb56.gz 33.83MB Simrad multibeam vendor format
0440_20130503_170420_raw.all.mb56.gz 33.45MB Simrad multibeam vendor format
0441_20130503_180420_raw.all.mb56.gz 33.31MB Simrad multibeam vendor format
0442_20130503_190420_raw.all.mb56.gz 33.11MB Simrad multibeam vendor format
0443_20130503_200420_raw.all.mb56.gz 25.84MB Simrad multibeam vendor format
0444_20130503_210420_raw.all.mb56.gz 16.93MB Simrad multibeam vendor format
0445_20130503_220420_raw.all.mb56.gz 14.91MB Simrad multibeam vendor format
0446_20130503_230420_raw.all.mb56.gz 24.11MB Simrad multibeam vendor format
0447_20130504_000420_raw.all.mb56.gz 19.15MB Simrad multibeam vendor format
0448_20130504_010420_raw.all.mb56.gz 18.12MB Simrad multibeam vendor format
0449_20130504_020420_raw.all.mb56.gz 16.80MB Simrad multibeam vendor format
0450_20130504_030420_raw.all.mb56.gz 18.76MB Simrad multibeam vendor format
0451_20130504_040420_raw.all.mb56.gz 3.44MB Simrad multibeam vendor format
0452_20130504_041516_raw.all.mb56.gz 24.73MB Simrad multibeam vendor format
0453_20130504_051516_raw.all.mb56.gz 25.96MB Simrad multibeam vendor format
0454_20130504_061516_raw.all.mb56.gz 26.62MB Simrad multibeam vendor format
0455_20130504_071516_raw.all.mb56.gz 26.17MB Simrad multibeam vendor format
0456_20130504_081516_raw.all.mb56.gz 27.70MB Simrad multibeam vendor format
0457_20130504_091516_raw.all.mb56.gz 28.51MB Simrad multibeam vendor format
0458_20130504_101516_raw.all.mb56.gz 27.24MB Simrad multibeam vendor format
0459_20130504_111516_raw.all.mb56.gz 27.67MB Simrad multibeam vendor format
0460_20130504_121516_raw.all.mb56.gz 27.06MB Simrad multibeam vendor format
0461_20130504_131516_raw.all.mb56.gz 28.90MB Simrad multibeam vendor format
0462_20130504_141516_raw.all.mb56.gz 27.17MB Simrad multibeam vendor format
0463_20130504_151517_raw.all.mb56.gz 1.63MB Simrad multibeam vendor format
0464_20130504_164449_raw.all.mb56.gz 30.09MB Simrad multibeam vendor format
0465_20130504_174449_raw.all.mb56.gz 26.20MB Simrad multibeam vendor format
0466_20130504_184449_raw.all.mb56.gz 29.97MB Simrad multibeam vendor format
0467_20130504_194449_raw.all.mb56.gz 27.44MB Simrad multibeam vendor format
0468_20130504_204449_raw.all.mb56.gz 29.54MB Simrad multibeam vendor format
0469_20130504_214449_raw.all.mb56.gz 29.81MB Simrad multibeam vendor format
0470_20130504_224449_raw.all.mb56.gz 29.37MB Simrad multibeam vendor format
0471_20130504_234449_raw.all.mb56.gz 30.63MB Simrad multibeam vendor format
0472_20130505_004449_raw.all.mb56.gz 27.26MB Simrad multibeam vendor format
0473_20130505_014449_raw.all.mb56.gz 28.19MB Simrad multibeam vendor format
0474_20130505_024449_raw.all.mb56.gz 27.84MB Simrad multibeam vendor format
0475_20130505_034449_raw.all.mb56.gz 26.74MB Simrad multibeam vendor format
0476_20130505_044449_raw.all.mb56.gz 23.51MB Simrad multibeam vendor format
0477_20130505_054449_raw.all.mb56.gz 27.48MB Simrad multibeam vendor format
0478_20130505_064449_raw.all.mb56.gz 28.31MB Simrad multibeam vendor format
0479_20130505_074449_raw.all.mb56.gz 27.68MB Simrad multibeam vendor format
0480_20130505_084449_raw.all.mb56.gz 30.80MB Simrad multibeam vendor format
0481_20130505_094449_raw.all.mb56.gz 29.52MB Simrad multibeam vendor format
0482_20130505_104449_raw.all.mb56.gz 32.40MB Simrad multibeam vendor format
0483_20130505_114449_raw.all.mb56.gz 33.72MB Simrad multibeam vendor format
0484_20130505_124449_raw.all.mb56.gz 33.93MB Simrad multibeam vendor format
0485_20130505_134449_raw.all.mb56.gz 16.51MB Simrad multibeam vendor format
0486_20130505_151257_raw.all.mb56.gz 33.20MB Simrad multibeam vendor format
0487_20130505_161257_raw.all.mb56.gz 34.13MB Simrad multibeam vendor format
0488_20130505_171257_raw.all.mb56.gz 31.62MB Simrad multibeam vendor format
0489_20130505_181257_raw.all.mb56.gz 29.92MB Simrad multibeam vendor format
0490_20130505_191257_raw.all.mb56.gz 29.18MB Simrad multibeam vendor format
0491_20130505_201257_raw.all.mb56.gz 27.34MB Simrad multibeam vendor format
0492_20130505_211257_raw.all.mb56.gz 27.22MB Simrad multibeam vendor format
0493_20130505_221257_raw.all.mb56.gz 26.49MB Simrad multibeam vendor format
0494_20130505_231257_raw.all.mb56.gz 25.40MB Simrad multibeam vendor format
0495_20130506_001257_raw.all.mb56.gz 23.98MB Simrad multibeam vendor format
0496_20130506_011257_raw.all.mb56.gz 25.55MB Simrad multibeam vendor format
0497_20130506_021257_raw.all.mb56.gz 28.40MB Simrad multibeam vendor format
0498_20130506_031257_raw.all.mb56.gz 25.23MB Simrad multibeam vendor format
0499_20130506_041257_raw.all.mb56.gz 26.33MB Simrad multibeam vendor format
0500_20130506_051257_raw.all.mb56.gz 25.72MB Simrad multibeam vendor format
0501_20130506_061257_raw.all.mb56.gz 26.02MB Simrad multibeam vendor format
0502_20130506_071257_raw.all.mb56.gz 26.48MB Simrad multibeam vendor format
0503_20130506_081257_raw.all.mb56.gz 27.20MB Simrad multibeam vendor format
0504_20130506_091257_raw.all.mb56.gz 26.15MB Simrad multibeam vendor format
0505_20130506_101257_raw.all.mb56.gz 31.98MB Simrad multibeam vendor format
0506_20130506_111257_raw.all.mb56.gz 34.12MB Simrad multibeam vendor format
0507_20130506_121257_raw.all.mb56.gz 37.03MB Simrad multibeam vendor format
0508_20130506_131257_raw.all.mb56.gz 31.00MB Simrad multibeam vendor format
0509_20130506_141257_raw.all.mb56.gz 35.10MB Simrad multibeam vendor format
0510_20130506_151257_raw.all.mb56.gz 33.62MB Simrad multibeam vendor format
0511_20130506_161257_raw.all.mb56.gz 18.05MB Simrad multibeam vendor format
0512_20130506_171257_raw.all.mb56.gz 16.86MB Simrad multibeam vendor format
0513_20130506_181257_raw.all.mb56.gz 20.27MB Simrad multibeam vendor format
0514_20130506_191257_raw.all.mb56.gz 24.15MB Simrad multibeam vendor format
0515_20130506_201257_raw.all.mb56.gz 23.07MB Simrad multibeam vendor format
0516_20130506_211257_raw.all.mb56.gz 24.43MB Simrad multibeam vendor format
0517_20130506_221257_raw.all.mb56.gz 17.55MB Simrad multibeam vendor format
0518_20130506_231257_raw.all.mb56.gz 20.49MB Simrad multibeam vendor format
0519_20130507_001257_raw.all.mb56.gz 20.10MB Simrad multibeam vendor format
0520_20130507_011257_raw.all.mb56.gz 20.40MB Simrad multibeam vendor format
0521_20130507_021257_raw.all.mb56.gz 21.22MB Simrad multibeam vendor format
0522_20130507_031257_raw.all.mb56.gz 22.48MB Simrad multibeam vendor format
0523_20130507_041257_raw.all.mb56.gz 22.62MB Simrad multibeam vendor format
0524_20130507_051257_raw.all.mb56.gz 24.06MB Simrad multibeam vendor format
0525_20130507_061257_raw.all.mb56.gz 21.85MB Simrad multibeam vendor format
0526_20130507_071257_raw.all.mb56.gz 23.62MB Simrad multibeam vendor format
0527_20130507_081257_raw.all.mb56.gz 23.28MB Simrad multibeam vendor format
0528_20130507_091257_raw.all.mb56.gz 29.06MB Simrad multibeam vendor format
0529_20130507_101257_raw.all.mb56.gz 27.83MB Simrad multibeam vendor format
0530_20130507_111257_raw.all.mb56.gz 29.77MB Simrad multibeam vendor format
0531_20130507_121257_raw.all.mb56.gz 21.51MB Simrad multibeam vendor format
0532_20130507_131257_raw.all.mb56.gz 25.03MB Simrad multibeam vendor format
0533_20130507_141257_raw.all.mb56.gz 34.13MB Simrad multibeam vendor format
0534_20130507_151257_raw.all.mb56.gz 29.76MB Simrad multibeam vendor format
0535_20130507_161257_raw.all.mb56.gz 5.89MB Simrad multibeam vendor format

Metadata Files: 3

Files File Size Description
NBP1303_Multibeam.xml NGDC created ISO metadata
NBP1303.xml 12.5KB XML metadata file
mb_bag_info.tar.gz 14.9KB Additional cruise information